[[{"header":{"parameterUnit":"m.s-1","parameterCategory":1,"la1":30.2992,"la2":30.254,"lo1":-89.0895,"lo2":-89.0443,"dy":0.0025,"dx":0.0025,"nx":19,"ny":19,"refTime":"2026-04-24T09:00:00:Z","depth":0,"parameterNumber":2,"parameterNumberName":"U-component_of_WINDS"},"data":[0,0,0,2.4585,2.4588,2.4713,2.4714,2.4896,2.4898,0,0,0,0,0,0,0,0,0,0,0,2.4563,2.4564,2.4585,2.4588,2.4713,2.4714,2.4896,2.4898,0,0,0,0,0,0,0,0,0,0,0,2.4562,2.4564,2.4566,2.4589,2.4713,2.4714,2.4896,2.4793,0,0,0,0,0,0,0,0,0,0,2.4667,2.4661,2.4563,2.4566,2.459,2.4713,2.4714,2.4788,2.4799,2.485,0,2.4899,0,2.4902,2.4912,2.4913,0,0,0,2.4577,2.4652,2.4672,2.4566,2.4591,2.4713,2.4654,2.4794,2.4807,2.4866,2.4902,2.4908,2.4905,2.4913,2.4914,2.5243,2.5245,0,0,2.457,2.4593,2.4663,2.4682,2.4665,2.465,2.4658,2.4802,2.4842,2.4902,2.4912,2.4908,2.4915,2.4916,2.5241,2.5244,0,0,0,2.4558,2.4589,2.4605,2.4675,2.4696,2.4654,2.4663,2.4836,2.4839,2.4913,2.491,2.4916,2.4918,2.5239,2.5242,2.5366,0,0,0,2.4553,2.4581,2.4603,2.4618,2.4693,2.4767,2.4694,2.4829,2.4845,2.4909,2.4916,2.492,2.5237,2.5241,2.5358,2.5421,0,0,0,2.4549,2.458,2.4604,2.4619,2.4673,2.4765,2.4776,2.4832,2.4844,2.4913,2.4921,2.5235,2.524,2.5351,2.5409,2.5515,0,0,0,2.4552,2.4712,2.4606,2.4784,2.4672,2.484,2.4775,2.4899,2.4973,2.4917,2.5237,2.5242,2.5348,2.5401,2.5507,2.5608,2.5652,0,0,2.4766,2.4739,2.4841,2.475,2.4943,2.4819,2.503,2.5076,2.5062,2.5183,2.5191,2.5361,2.5408,2.5513,2.5891,2.5926,0,0,0,2.4917,2.4991,2.5037,2.511,2.5149,2.5188,2.52,2.5217,2.5319,2.5129,2.5426,2.5454,2.5514,2.5562,2.5592,2.5642,2.5265,2.5264,2.5264,2.5254,2.5227,2.5395,2.5384,2.5454,2.5465,2.5519,2.5544,2.5496,2.5566,2.5603,2.5835,2.5892,2.5914,2.5967,2.5653,2.5654,2.5654,2.5654,2.5566,2.5667,2.56,2.5739,2.5709,2.5825,2.5841,2.5803,2.5906,2.5806,2.5858,2.5751,2.5954,2.5999,2.5664,2.5662,2.5661,2.566,2.5659,2.5784,2.5828,2.5846,2.5948,2.6029,2.6011,2.6113,2.6082,2.6053,2.6105,2.614,2.6138,2.6132,2.6123,2.6124,2.6125,2.6126,2.6126,2.6127,2.6004,2.602,2.6111,2.6167,2.6208,2.626,2.6271,2.6312,2.6348,2.6317,2.6317,2.6263,2.5978,2.5908,2.6139,2.6137,2.6136,2.6134,2.6133,2.6332,2.6252,2.6393,2.6435,2.6497,2.658,2.6539,2.6623,2.6652,2.6703,2.6637,2.6432,2.6401,2.6377,2.6318,2.6642,2.6642,2.6642,2.6642,2.6516,2.6497,2.6634,2.6704,2.6768,2.6745,2.6904,2.6914,2.6912,2.6928,2.6876,2.6795,2.6772,2.6755,2.6723,2.6668,2.7073,2.7074,2.7074,2.6716,2.6702,2.6844,2.6842,2.6888,2.6928,2.7076,2.7158,2.7139,2.7091,2.6939,2.6921,2.6791,2.675,2.6699,2.665,2.6548,0,0]},{"header":{"parameterUnit":"m.s-1","parameterCategory":1,"la1":30.2992,"la2":30.254,"lo1":-89.0895,"lo2":-89.0443,"dy":0.0025,"dx":0.0025,"nx":19,"ny":19,"refTime":"2026-04-24T09:00:00:Z","depth":0,"parameterNumber":3,"parameterNumberName":"V-component_of_WINDS"},"data":[0,0,0,4.8002,4.8004,4.8117,4.8118,4.8268,4.8269,0,0,0,0,0,0,0,0,0,0,0,4.7976,4.7978,4.8002,4.8005,4.8117,4.8118,4.8268,4.8269,0,0,0,0,0,0,0,0,0,0,0,4.7976,4.7977,4.7979,4.8005,4.8117,4.8118,4.8267,4.8179,0,0,0,0,0,0,0,0,0,0,4.8068,4.8053,4.7977,4.7979,4.8006,4.8117,4.8118,4.8175,4.8185,4.8221,0,4.8259,0,4.8267,4.828,4.8281,0,0,0,4.7998,4.8045,4.8069,4.7979,4.8007,4.8117,4.8065,4.818,4.8191,4.8234,4.8261,4.8266,4.8269,4.8281,4.8282,4.8522,4.8523,0,0,4.7992,4.8,4.8061,4.8077,4.8064,4.8061,4.8068,4.8187,4.8215,4.8261,4.8269,4.8272,4.8282,4.8284,4.852,4.8522,0,0,0,4.7978,4.7996,4.8016,4.8071,4.8091,4.8064,4.8073,4.8209,4.8216,4.8271,4.8274,4.8283,4.8285,4.8519,4.8521,4.8601,0,0,0,4.7974,4.7988,4.8014,4.802,4.8089,4.8152,4.8093,4.8208,4.8221,4.8273,4.8283,4.8287,4.8517,4.852,4.8596,4.8638,0,0,0,4.7966,4.7987,4.8006,4.802,4.8069,4.815,4.8163,4.821,4.8223,4.8281,4.8287,4.8516,4.852,4.8591,4.8629,4.8703,0,0,0,4.7959,4.8075,4.8008,4.8138,4.8069,4.8201,4.8162,4.8259,4.8319,4.8284,4.8518,4.8521,4.8589,4.8624,4.8698,4.8767,4.8797,0,0,4.8109,4.8093,4.8169,4.8112,4.8259,4.8183,4.8339,4.8384,4.838,4.8474,4.8479,4.8598,4.8629,4.8702,4.8961,4.8985,0,0,0,4.8219,4.8274,4.8311,4.837,4.8409,4.8445,4.8466,4.8482,4.8562,4.8431,4.8644,4.8662,4.8705,4.8737,4.8757,4.8793,4.8536,4.8536,4.8536,4.8443,4.8435,4.8559,4.8564,4.8621,4.8642,4.8686,4.8711,4.8683,4.8734,4.8761,4.892,4.8959,4.8974,4.9011,4.8797,4.8797,4.8798,4.8798,4.8663,4.8738,4.8701,4.8809,4.8797,4.8886,4.8909,4.8886,4.8965,4.8898,4.8935,4.8863,4.9,4.9032,4.8804,4.8803,4.8802,4.8801,4.8801,4.8808,4.8843,4.8863,4.8947,4.9012,4.9011,4.9089,4.9075,4.9062,4.9098,4.9125,4.9124,4.912,4.9112,4.9113,4.9113,4.9114,4.9114,4.9115,4.8952,4.8972,4.9041,4.9093,4.9128,4.9173,4.9194,4.9227,4.926,4.9243,4.9243,4.921,4.9016,4.8967,4.9123,4.9122,4.9121,4.912,4.9119,4.9177,4.9124,4.9231,4.9268,4.9326,4.939,4.9372,4.944,4.9465,4.9504,4.9463,4.9322,4.9303,4.9287,4.9247,4.9465,4.9465,4.9465,4.9466,4.93,4.929,4.9396,4.9454,4.9509,4.9504,4.9621,4.9638,4.9646,4.966,4.9626,4.9571,4.9555,4.9546,4.9524,4.9486,4.9761,4.9761,4.9762,4.9437,4.9432,4.9537,4.9548,4.9592,4.9629,4.9739,4.9804,4.9802,4.9773,4.9671,4.9658,4.9569,4.9541,4.951,4.9477,4.9407,0,0]}]]